Weather in Cyril E. King Airport

The United States Virgin Islands     18°20′05″N   64°58′18″W
temp.,
°C
wind,
m/s
gust,
m/s
humid.,
%
clouds,
%
prec.,
mm/h
press.,
hPa
HPBL,
m
10 may, mon
mon1023:00+27e8980100 0.7 1019872
02:00+27e91080100 0.9 1017874
05:00+27e91079100 0.1 1017951
08:00+27e101281100 0.3 1018844
11:00+27e8980100 0.3 1019979
14:00+27e8976100 0.5 10171083
17:00+27e7875100 0.1 1017901
20:00+26ene91080100 2.8 1019771
11 may, tue
tue1123:00+27ene91076100 0.3 1019850
02:00+27e101181100 0.4 1016867
05:00+27e91179100 0.1 1017895
08:00+27ese101279100 0.1 1018824
11:00+27ese9118191 0.0 1018994
14:00+27e91079100 0.1 1016930
17:00+27e7880100 0.2 1016800
20:00+27e8980100 0.9 1018795
12 may, wed
wed1223:00+27e91080100 0.2 1018842
02:00+27e91075100 0.3 10161024
05:00+27e9107199 0.0 10171253
08:00+27e8972100 0.1 10181178
11:00+27e8871100 0.0 1018945
14:00+27e677398 0.0 10171005
17:00+27e777456 0.0 1016791
20:00+27ene887914 0.0 1017842
13 may, thu
thu1323:00+27e897965 0.3 1018871
02:00+26e997969 0.4 1016852
05:00+27e8973100 0.1 10171078
08:00+27e887074 0.1 10181168
11:00+27e78777 0.0 1018896
14:00+27ese78783 0.1 1017840
17:00+27ese78740 0.0 1015927
20:00+27e898012 0.1 1016839
14 may, fri
fri1423:00+27e898020 0.6 1017822
02:00+27e89740 0.6 1016935
05:00+26e99815 0.0 1016844
08:00+27ese99781 0.1 1017906
11:00+27ese897817 0.5 1018874
14:00+27ese89789 0.9 1016893
17:00+27ese78780 0.0 1015829
20:00+27ese778013 0.1 1016783